• Join FlightAware (Why Join?)
  • Login
  • US Flag GB Flag 
10:35 EST


 

Airport Tracker/Info


-or-


 

Live Flight TrackerFlight Track Log ✈ SWA1619 ✈ 23-Apr-2013 ✈ KHOU - KBNA

Flight Track Log - Related Links

Times and Time Zones

All times are in EDT time to prevent confusion due to time zone crossing. See the SWA1619 flight status page for this flight to view local times or setup timezone preferences in your user account.

Time Position Orientation Groundspeed Altitude Reporting Facility
EDT Latitude Longitude Course Direction KTS MPH feet Rate Location/Type
08:09 29.6353 -95.2650 27° Northeast 139 160 900  Level Houston Center
08:10 29.6611 -95.2500 27° Northeast 201 231 2,500 2,388 Climbing Houston Center
08:11 29.7186 -95.2575 354° North 241 277 4,800 2,845 Climbing Houston Center
08:12 29.7992 -95.2644 356° North 299 344 8,000 2,842 Climbing Houston Center
08:13 29.8844 -95.2714 356° North 302 348 11,100 3,429 Climbing Houston Center
08:14 29.9978 -95.2281 18° North 367 422 15,600 3,836 Climbing Houston Center
08:15 30.0894 -95.1728 28° Northeast 370 426 18,900 3,122 Climbing Houston Center
08:16 30.1864 -95.1144 27° Northeast 389 448 22,000 2,806 Climbing Houston Center
08:17 30.2892 -95.0531 27° Northeast 411 473 24,700 2,390 Climbing Houston Center
08:18 30.3942 -94.9883 28° Northeast 426 490 26,900 2,293 Climbing Houston Center
08:19 30.5203 -94.9119 28° Northeast 444 511 29,400 2,195 Climbing Houston Center
08:20 30.6289 -94.8331 32° Northeast 458 527 31,400 1,951 Climbing Houston Center
08:21 30.7378 -94.7492 34° Northeast 468 539 33,400 1,951 Climbing Houston Center
08:22 30.8447 -94.6667 34° Northeast 464 534 35,400 1,761 Climbing Houston Center
08:23 30.9275 -94.6019 34° Northeast 455 524 36,600 1,444 Climbing Fort Worth Center
08:24 31.0361 -94.5164 34° Northeast 460 529 38,000 1,250 Climbing Fort Worth Center
08:25 31.1572 -94.4275 32° Northeast 465 535 39,100 1,000 Climbing Fort Worth Center
08:26 31.2594 -94.3442 35° Northeast 475 547 40,000 950 Climbing Fort Worth Center
08:27 31.3681 -94.2578 34° Northeast 480 552 41,000 500 Climbing Fort Worth Center
08:28 31.4786 -94.1736 33° Northeast 475 547 41,000  Level Fort Worth Center
08:29 31.5850 -94.0919 33° Northeast 475 547 41,000  Level Fort Worth Center
08:30 31.7058 -93.9997 33° Northeast 470 541 41,000  Level Fort Worth Center
08:31 31.8100 -93.9153 35° Northeast 465 535 41,000  Level Fort Worth Center
08:32 31.8958 -93.8483 34° Northeast 465 535 41,000  Level Fort Worth Center
08:33 32.0119 -93.7506 36° Northeast 465 535 41,000  Level Fort Worth Center
08:34 32.1303 -93.6600 33° Northeast 460 529 41,000  Level Fort Worth Center
08:35 32.2258 -93.5775 36° Northeast 465 535 41,000  Level Fort Worth Center
08:36 32.3297 -93.4919 35° Northeast 459 528 41,000  Level Fort Worth Center
08:37 32.4356 -93.4064 34° Northeast 459 528 41,000  Level Fort Worth Center
08:38 32.5436 -93.3225 33° Northeast 459 528 41,000  Level Fort Worth Center
08:39 32.6533 -93.2339 34° Northeast 459 528 41,000  Level Fort Worth Center
08:40 32.7611 -93.1447 35° Northeast 466 536 41,000  Level Fort Worth Center
08:41 32.8686 -93.0581 34° Northeast 466 536 41,000  Level Fort Worth Center
08:43 33.0975 -92.8742 34° Northeast 490 564 41,000  Level Memphis Center
08:44 33.2058 -92.7856 34° Northeast 478 550 41,000  Level Memphis Center
08:45 33.3039 -92.6739 44° Northeast 478 550 41,000  Level Memphis Center
08:46 33.3917 -92.5467 50° Northeast 483 556 41,000  Level Memphis Center
08:47 33.4753 -92.4169 52° Northeast 483 556 41,000  Level Memphis Center
08:48 33.5589 -92.2892 52° Northeast 488 562 41,000  Level Memphis Center
08:49 33.6442 -92.1589 52° Northeast 488 562 41,000  Level Memphis Center
08:50 33.7253 -92.0306 53° Northeast 482 555 41,000  Level Memphis Center
08:51 33.8106 -91.9022 51° Northeast 482 555 41,000  Level Memphis Center
08:52 33.8956 -91.7736 51° Northeast 487 560 41,000  Level Memphis Center
08:53 33.9742 -91.6447 54° Northeast 482 555 41,000  Level Memphis Center
08:54 34.0589 -91.5106 53° Northeast 482 555 41,000  Level Memphis Center
08:55 34.1436 -91.3811 52° Northeast 488 562 41,000  Level Memphis Center
08:56 34.2300 -91.2489 52° Northeast 496 571 41,000 -350 Level Memphis Center
08:57 34.3081 -91.1167 54° Northeast 490 564 40,300 -750 Descending Memphis Center
08:58 34.3903 -90.9914 51° Northeast 483 556 39,500 -800 Descending Memphis Center
08:59 34.4658 -90.8686 53° Northeast 476 548 38,700 -850 Descending Memphis Center
09:00 34.5414 -90.7453 53° Northeast 455 524 37,800 -700 Descending Memphis Center
09:01 34.6106 -90.6347 53° Northeast 455 524 37,300 -400 Descending Memphis Center
09:02 34.6881 -90.5111 53° Northeast 462 532 37,000 -150 Descending Memphis Center
09:03 34.7675 -90.3797 54° Northeast 457 526 37,000  Level Memphis Center
09:04 34.8444 -90.2583 52° Northeast 457 526 37,000  Level Memphis Center
09:05 34.9236 -90.1367 52° Northeast 457 526 37,000  Level Memphis Center
09:06 35.0089 -90.0022 52° Northeast 457 526 37,000  Level Memphis Center
09:07 35.0667 -89.8497 65° Northeast 470 541 37,000  Level Memphis Center
09:08 35.1161 -89.6969 68° East 481 554 37,000  Level Memphis Center
09:09 35.1653 -89.5442 68° East 481 554 37,000  Level Memphis Center
09:10 35.2103 -89.4117 67° East 476 548 37,000  Level Memphis Center
09:11 35.2569 -89.2611 69° East 471 542 37,000 -150 Level Memphis Center
09:12 35.3078 -89.1103 68° East 476 548 36,700 -600 Descending Memphis Center
09:13 35.3542 -88.9669 68° East 470 541 35,800 -850 Descending Memphis Center
09:14 35.4003 -88.8236 68° East 454 522 35,000 -850 Descending Memphis Center
09:15 35.4444 -88.6800 69° East 449 517 34,100 -1,700 Descending Memphis Center
09:16 35.4925 -88.5311 68° East 454 522 31,600 -2,300 Descending Memphis Center
09:17 35.5403 -88.3872 68° East 454 522 29,500 -2,050 Descending Memphis Center
09:18 35.5858 -88.2433 69° East 454 522 27,500 -2,100 Descending Memphis Center
09:19 35.6333 -88.1017 68° East 433 498 25,300 -2,100 Descending Memphis Center
09:20 35.6725 -87.9675 70° East 414 476 23,300 -1,950 Descending Memphis Center
09:21 35.7139 -87.8386 68° East 408 470 21,400 -1,900 Descending Memphis Center
09:22 35.7508 -87.7147 70° East 391 450 19,500 -1,700 Descending Memphis Center
09:23 35.7839 -87.6061 69° East 381 438 18,000 -1,700 Descending Memphis Center
09:24 35.8211 -87.4922 68° East 365 420 16,100 -1,850 Descending Memphis Center
09:25 35.8622 -87.3833 65° Northeast 355 409 14,300 -1,800 Descending Memphis Center
09:26 35.9033 -87.2742 65° Northeast 345 397 12,500 -1,700 Descending Memphis Center
09:27 35.9403 -87.1703 66° East 333 383 10,900 -1,400 Descending Memphis Center
09:28 35.9775 -87.0739 64° Northeast 314 361 9,700 -1,250 Descending Memphis Center
09:29 36.0128 -86.9878 63° Northeast 285 328 8,400 -1,350 Descending Memphis Center
09:30 36.0500 -86.9042 61° Northeast 280 322 7,000 -1,150 Descending Memphis Center
09:31 36.0831 -86.8206 64° Northeast 274 315 6,100 -950 Descending Memphis Center
09:32 36.1486 -86.7817 26° Northeast 240 276 5,100 -850 Descending Memphis Center
09:33 36.2106 -86.7558 19° North 226 260 4,400 -900 Descending Memphis Center
09:34 36.2486 -86.7078 46° Northeast 209 241 3,300 -1,050 Descending Memphis Center
09:35 36.2222 -86.6600 124° Southeast 149 171 2,300 -800 Descending Memphis Center
09:36 36.1889 -86.6564 175° South 116 133 1,700 -650 Descending Memphis Center
09:37 36.1581 -86.6706 200° South 116 133 1,000 -450 Descending Memphis Center
09:38 36.1267 -86.6747 186° South 116 133 800 -200 Descending Memphis Center
09:40 36.1245 -86.6782 174° South  Level Estimated
09:47 36.1245 -86.6782 174° South  Level Estimated
09:48 36.1245 -86.6782 174° South  Level Estimated
09:49 36.1245 -86.6782 174° South  Level Estimated
09:50 36.1245 -86.6782 174° South  Level Estimated
09:51 36.1245 -86.6782 174° South  Level Estimated
09:52 36.1245 -86.6782 174° South  Level Estimated
09:53 36.1245 -86.6782 174° South  Level Estimated